NEOK1: Neosho R at Neosho Rapids, KS

                                SHEF ID:       NEOK1     NEOSHO R AT NEOSHO RAPIDS, KS
STATION TYPE:

STAGE RIV-FLOW BAT-LOAD
ft cfs volt
Ccp-Rev Ccp-Rev Ccp-Rev
(America/Chicago)
03/05 00:00 9.25 5192 12.23
03/05 01:00 9.23 5176 12.23
03/05 02:00 9.21 5161 12.22
03/05 03:00 9.20 5153 12.21
03/05 04:00 9.18 5137 12.21
03/05 05:00 9.16 5122 12.21
03/05 06:00 9.15 5114 12.21
03/05 07:00 9.13 5099 12.21
03/05 08:00 9.11 5083 12.24
03/05 09:00 9.09 5068 12.42
03/05 10:00 9.07 5052 12.78
03/05 11:00 9.05 5037 12.91
03/05 12:00 9.03 5021 12.98
03/05 13:00 9.01 5006 13.07
03/05 14:00 9.00 4998 13.07
03/05 15:00 8.98 4983 12.90
03/05 16:00 8.96 4967 12.86
03/05 17:00 8.94 4952 12.65
03/05 18:00 8.92 4936 12.57
03/05 19:00 8.90 4921 12.52
03/05 20:00 8.88 4906 12.50
03/05 21:00 8.85 4883 12.49
03/05 22:00 8.84 4875 12.47
03/05 23:00 8.81 4852 12.46
Data processed at Fri 06Mar2026 05:36 GMT

NOTICE: If you are parsing this page

Please convert to using our Data API. Starting early 2026 we will be migrating to: https://water.usace.army.mil with modern pages rendered in JavaScript. When this migration completes you will no longer be able to scrape this page! CWMSDataAPI (CDA)

Timeseries IDs (TSIDs)

TSIDs used from left to right in the data table
NEOR.Stage.Inst.1Hour.0.Ccp-Rev
NEOR.Flow.Inst.1Hour.0.Ccp-Rev
NEOR.Volt-Battery Load.Inst.1Hour.0.Ccp-Rev

                            

All information presented herein is the property of the government of the United States of America and may be revised or deleted at any time without prior notice. Dissemination of this information without the expressed written consent of the Public Affairs Office, Tulsa District U.S. Army Corps of Engineers is strictly prohibited. These data are gathered electronically and, as presented, have NOT undergone any form of quality control. These data are NOT guaranteed to be valid or correct.